| time (UTC) | temp C | wind direction | speed KPH | gust KPH | rain 1hr cm | rain 24hr cm | rain mn cm | humidity % | barometer mb |
| 20260505224557 | 6 | 237 | 0.0 | 0.0 | 0.00 | 0.00 | 0.00 | 93 | 1031.0 |
| 20260505223056 | 6 | 237 | 0.0 | 1.6 | 0.00 | 0.00 | 0.00 | 92 | 1030.8 |
| 20260505221555 | 6 | 237 | 0.0 | 0.0 | 0.00 | 0.00 | 0.00 | 92 | 1030.7 |
| 20260505220051 | 6 | 237 | 0.0 | 0.0 | 0.00 | 0.00 | 0.00 | 92 | 1030.6 |
| 20260505214601 | 7 | 237 | 0.0 | 0.0 | 0.00 | 0.00 | 0.00 | 92 | 1030.5 |
| 20260505213047 | 7 | 237 | 0.0 | 1.6 | 0.00 | 0.00 | 0.00 | 92 | 1030.3 |
| 20260505211547 | 7 | 237 | 0.0 | 0.0 | 0.00 | 0.00 | 0.00 | 92 | 1030.1 |
| 20260505210044 | 7 | 237 | 0.0 | 0.0 | 0.00 | 0.00 | 0.00 | 92 | 1029.9 |
| 20260505204540 | 7 | 237 | 0.0 | 0.0 | 0.00 | 0.00 | 0.00 | 92 | 1029.8 |
| 20260505203040 | 7 | 237 | 0.0 | 0.0 | 0.00 | 0.00 | 0.00 | 91 | 1029.8 |
| 20260505201548 | 7 | 237 | 0.0 | 0.0 | 0.00 | 0.00 | 0.00 | 92 | 1029.7 |
| 20260505200035 | 7 | 237 | 0.0 | 0.0 | 0.00 | 0.00 | 0.00 | 91 | 1029.6 |
| 20260505194535 | 7 | 237 | 0.0 | 0.0 | 0.00 | 0.00 | 0.00 | 91 | 1029.5 |
| 20260505193032 | 8 | 237 | 0.0 | 0.0 | 0.00 | 0.00 | 0.00 | 92 | 1029.5 |
| 20260505191532 | 8 | 237 | 0.0 | 0.0 | 0.00 | 0.00 | 0.00 | 91 | 1029.5 |
| 20260505190038 | 8 | 237 | 0.0 | 0.0 | 0.00 | 0.00 | 0.00 | 91 | 1029.5 |
| 20260505184529 | 8 | 237 | 0.0 | 0.0 | 0.00 | 0.00 | 0.00 | 90 | 1029.6 |
| 20260505183031 | 8 | 237 | 0.0 | 0.0 | 0.00 | 0.00 | 0.00 | 90 | 1029.5 |
| 20260505181532 | 8 | 237 | 0.0 | 0.0 | 0.00 | 0.00 | 0.00 | 90 | 1029.5 |
| 20260505180024 | 8 | 237 | 0.0 | 0.0 | 0.00 | 0.00 | 0.00 | 90 | 1029.5 |
| 20260505174523 | 8 | 237 | 0.0 | 0.0 | 0.00 | 0.00 | 0.00 | 90 | 1029.5 |
| 20260505173034 | 8 | 237 | 0.0 | 0.0 | 0.00 | 0.00 | 0.00 | 90 | 1029.6 |
| 20260505171532 | 8 | 237 | 0.0 | 0.0 | 0.00 | 0.00 | 0.00 | 90 | 1029.6 |
| 20260505170020 | 8 | 237 | 0.0 | 0.0 | 0.00 | 0.00 | 0.00 | 89 | 1029.5 |
| 20260505164518 | 8 | 237 | 0.0 | 0.0 | 0.00 | 0.00 | 0.00 | 89 | 1029.4 |
| 20260505163016 | 8 | 237 | 0.0 | 0.0 | 0.00 | 0.00 | 0.00 | 88 | 1029.3 |
| 20260505161515 | 9 | 237 | 0.0 | 0.0 | 0.00 | 0.00 | 0.00 | 88 | 1029.3 |
| 20260505153013 | 10 | 237 | 0.0 | 0.0 | 0.00 | 0.00 | 0.00 | 85 | 1029.3 |
| 20260505151509 | 10 | 237 | 0.0 | 0.0 | 0.00 | 0.00 | 0.00 | 85 | 1029.2 |
| 20260505124503 | 12 | 76 | 0.0 | 3.2 | 0.00 | 0.00 | 0.00 | 79 | 1028.7 |
| 20260505123003 | 12 | 75 | 0.0 | 4.8 | 0.00 | 0.00 | 0.00 | 78 | 1028.4 |
| 20260505121502 | 12 | 76 | 1.6 | 3.2 | 0.00 | 0.00 | 0.00 | 78 | 1028.3 |
| 20260505120004 | 12 | 81 | 0.0 | 4.8 | 0.00 | 0.00 | 0.00 | 78 | 1028.2 |
| 20260505114503 | 13 | 88 | 0.0 | 3.2 | 0.00 | 0.00 | 0.00 | 77 | 1028.1 |
| 20260505113000 | 13 | 55 | 0.0 | 6.4 | 0.00 | 0.00 | 0.00 | 76 | 1027.9 |
| 20260505111600 | 13 | 97 | 0.0 | 4.8 | 0.00 | 0.00 | 0.00 | 76 | 1027.9 |
| 20260505101558 | 15 | 70 | 1.6 | 4.8 | 0.00 | 0.00 | 0.00 | 71 | 1027.3 |
| 20260505100058 | 15 | 211 | 0.0 | 3.2 | 0.00 | 0.00 | 0.00 | 68 | 1027.1 |
| 20260505094556 | 17 | 211 | 0.0 | 1.6 | 0.00 | 0.00 | 0.00 | 64 | 1027.1 |
| 20260505093057 | 18 | 211 | 0.0 | 1.6 | 0.00 | 0.00 | 0.00 | 61 | 1026.9 |
| 20260505091556 | 19 | 211 | 0.0 | 1.6 | 0.00 | 0.00 | 0.00 | 58 | 1026.7 |
| 20260505090054 | 20 | 211 | 0.0 | 3.2 | 0.00 | 0.00 | 0.00 | 57 | 1026.6 |
| 20260505084553 | 20 | 211 | 0.0 | 3.2 | 0.00 | 0.00 | 0.00 | 57 | 1026.4 |
| 20260505083052 | 21 | 204 | 0.0 | 3.2 | 0.00 | 0.00 | 0.00 | 55 | 1026.4 |
| 20260505081551 | 21 | 213 | 0.0 | 3.2 | 0.00 | 0.00 | 0.00 | 56 | 1026.3 |
| 20260505080049 | 20 | 224 | 1.6 | 4.8 | 0.00 | 0.00 | 0.00 | 57 | 1026.3 |
| 20260505074554 | 21 | 253 | 0.0 | 4.8 | 0.00 | 0.00 | 0.00 | 55 | 1026.2 |
| 20260505073101 | 21 | 252 | 0.0 | 4.8 | 0.00 | 0.00 | 0.00 | 55 | 1026.2 |
| 20260505071551 | 20 | 223 | 1.6 | 6.4 | 0.00 | 0.00 | 0.00 | 58 | 1026.2 |
| 20260505070043 | 20 | 198 | 1.6 | 4.8 | 0.00 | 0.00 | 0.00 | 59 | 1026.2 |
| 20260505064544 | 20 | 198 | 1.6 | 4.8 | 0.00 | 0.00 | 0.00 | 56 | 1026.2 |
| 20260505063039 | 21 | 184 | 0.0 | 8.0 | 0.00 | 0.00 | 0.00 | 59 | 1026.3 |
| 20260505061548 | 20 | 295 | 0.0 | 6.4 | 0.00 | 0.00 | 0.00 | 56 | 1026.2 |
| 20260505060036 | 20 | 67 | 1.6 | 4.8 | 0.00 | 0.00 | 0.00 | 57 | 1026.3 |
| 20260505054556 | 20 | 62 | 1.6 | 3.2 | 0.00 | 0.00 | 0.00 | 61 | 1026.3 |
| 20260505053033 | 20 | 165 | 0.0 | 4.8 | 0.00 | 0.00 | 0.00 | 62 | 1026.4 |
| 20260505051527 | 19 | 131 | 0.0 | 3.2 | 0.00 | 0.00 | 0.00 | 65 | 1026.5 |
| 20260505041519 | 18 | 117 | 1.6 | 4.8 | 0.00 | 0.00 | 0.00 | 67 | 1027.4 |
| 20260505040019 | 18 | 104 | 1.6 | 4.8 | 0.00 | 0.00 | 0.00 | 65 | 1027.6 |
| 20260505034515 | 18 | 209 | 0.0 | 4.8 | 0.00 | 0.00 | 0.00 | 70 | 1027.8 |
| 20260505033014 | 18 | 233 | 0.0 | 3.2 | 0.00 | 0.00 | 0.00 | 69 | 1027.9 |
| 20260505031529 | 17 | 143 | 0.0 | 4.8 | 0.00 | 0.00 | 0.00 | 73 | 1027.9 |
| 20260505030009 | 17 | 350 | 0.0 | 4.8 | 0.00 | 0.00 | 0.00 | 77 | 1028.0 |
| 20260505024506 | 15 | 355 | 1.6 | 4.8 | 0.00 | 0.00 | 0.00 | 82 | 1028.2 |
| 20260505023120 | 14 | 351 | 1.6 | 6.4 | 0.00 | 0.00 | 0.00 | 90 | 1028.4 |
| 20260505021555 | 12 | 349 | 3.2 | 4.8 | 0.00 | 0.00 | 0.00 | 93 | 1028.6 |
| 20260505020053 | 12 | 360 | 1.6 | 4.8 | 0.00 | 0.00 | 0.00 | 94 | 1028.8 |
| 20260505014548 | 11 | 360 | 1.6 | 3.2 | 0.00 | 0.00 | 0.00 | 95 | 1028.9 |
| 20260505013059 | 10 | 360 | 0.0 | 1.6 | 0.00 | 0.00 | 0.00 | 94 | 1028.9 |
| 20260505011543 | 10 | 360 | 0.0 | 0.0 | 0.00 | 0.00 | 0.00 | 95 | 1028.9 |
| 20260505010038 | 9 | 360 | 0.0 | 0.0 | 0.00 | 0.00 | 0.00 | 95 | 1028.9 |
| 20260505004546 | 8 | 360 | 0.0 | 3.2 | 0.00 | 0.00 | 0.00 | 94 | 1028.9 |
| 20260505003034 | 8 | 242 | 0.0 | 4.8 | 0.00 | 0.00 | 0.00 | 95 | 1028.8 |
| 20260505001531 | 8 | 58 | 0.0 | 1.6 | 0.00 | 0.00 | 0.00 | 95 | 1028.6 |
| 20260505000044 | 8 | 54 | 0.0 | 0.0 | 0.00 | 0.00 | 0.00 | 94 | 1028.6 |
| 20260504234526 | 8 | 54 | 0.0 | 0.0 | 0.00 | 0.00 | 0.00 | 94 | 1028.4 |
| 20260504233022 | 8 | 54 | 0.0 | 0.0 | 0.00 | 0.00 | 0.00 | 94 | 1028.1 |
| 20260504231519 | 8 | 54 | 0.0 | 0.0 | 0.00 | 0.00 | 0.00 | 94 | 1028.0 |
| 20260504230017 | 8 | 54 | 0.0 | 0.0 | 0.00 | 0.00 | 0.00 | 94 | 1027.8 |